User: anonymous   Login
Location: Castelbiague
(43.0361°N, 0.9246°E)
Time: 21:50:20
(UTC+00:00)
Language:

Cosmos 2278 Rocket - Orbit

View from above orbital plane
View from above orbital plane
View from above satellite
View from above satellite

Ground track
Ground track

The orbit data is extracted from the following two-line orbital elements,

1 23088U 94023B   21271.34777395 -.00000162  00000-0 -59506-4 0  9997
2 23088  70.9990 239.0319 0005770 256.8686 103.1793 14.14699103416489
Epoch (UTC): 28 September 2021 08:20:47
Eccentricity: 0.0005770
inclination: 70.9990°
perigee height: 839 km
apogee height: 847 km
right ascension of ascending node: 239.0319°
argument of perigee: 256.8686°
revolutions per day: 14.14699103
mean anomaly at epoch: 103.1793°
orbit number at epoch: 41648

The dashed part of the orbit path shows where the satellite is in the earth's shadow,  

DLR